User: anonymous   Login
Location: Theydon Bois
(51.6750°N, 0.1050°E)
Time: 01:14:22
(UTC+01:00)
Language:

Cosmos 1805 - Orbit

View from above orbital plane
View from above orbital plane
View from above satellite
View from above satellite

Ground track
Ground track

The orbit data is extracted from the following two-line orbital elements,

1 17191U 86097A   18201.50836490 +.00001018 +00000-0 +57302-4 0  9997
2 17191 082.4747 357.0418 0006010 131.5227 228.6520 15.12172809723541
Epoch (UTC): 20 July 2018 12:12:02
Eccentricity: 0.0006010
inclination: 82.4747°
perigee height: 525 km
apogee height: 534 km
right ascension of ascending node: 357.0418°
argument of perigee: 131.5227°
revolutions per day: 15.12172809
mean anomaly at epoch: 228.6520°
orbit number at epoch: 72354

The dashed part of the orbit path shows where the satellite is in the earth's shadow,  

DLR